Weather History for KUGN - January, 2014

Change the Weather History Date:

Sunday, January 5, 2014

  Actual Average Record
Temperature  
Mean Temperature 10 °F -  
Max Temperature 24 °F 31 °F 51 °F (1998)
Min Temperature -4 °F 17 °F -6 °F (2015)
Degree Days  
Heating Degree Days 55 41  
Month to date heating degree days 262 204  
Since 1 July heating degree days 3150 2753  
Cooling Degree Days 0 0  
Month to date cooling degree days 0 0  
Year to date cooling degree days 0 0  
Moisture  
Dew Point 4 °F    
Average Humidity 72    
Maximum Humidity 88    
Minimum Humidity 56    
Precipitation  
Precipitation 0.00 in 0.05 in 0.40 in (2001)
Month to date precipitation 0.00 0.23  
Year to date precipitation 0.00 0.23  
Sea Level Pressure  
Sea Level Pressure 30.03 in    
Wind  
Wind Speed 13 mph (NNW)    
Max Wind Speed 22 mph    
Max Gust Speed 33 mph    
Visibility 4 miles    
Events Rain , Snow    
T = Trace of Precipitation, MM = Missing Value Source: NWS Daily Summary

Daily Weather History Graph

Daily Weather History Graph

Search for Another Location

Airport or City:

Trip Planner

Search our weather history database for the weather conditions in past years. The results will help you decide how hot, cold, wet, or windy it might be!

Date:

Astronomy

Jan. 05, 2014 Rise Set
Actual Time 7:20 AM CST 4:33 PM CST
Civil Twilight 6:49 AM CST 5:04 PM CST
Nautical Twilight 6:14 AM CST 5:40 PM CST
Astronomical Twilight 5:40 AM CST 6:14 PM CST
Moon 9:55 AM CST (1/5) 10:07 PM CST (1/5)
Length of Visible Light 10h 15m
Length of Day
9h 12m
Waxing Crescent, 25% of the Moon is Illuminated
Jan 5
Waxing Crescent
Jan 7
First Quarter
Jan 15
Full
Jan 23
Last Quarter
Jan 30
New

Hourly Weather History & Observations

Time (CST) Temp. Windchill Dew Point Humidity Pressure Visibility Wind Dir Wind Speed Gust Speed Precip Events Conditions
12:52 AM 21.9 °F 11.0 °F 17.1 °F 82% 30.06 in 4.0 mi NNW 10.4 mph 16.1 mph 0.00 in   Haze
1:44 AM 19.4 °F 9.5 °F 17.6 °F 93% 30.02 in 1.8 mi NNW 8.1 mph 17.3 mph 0.00 in Snow Light Snow
1:52 AM 19.9 °F 11.1 °F 17.1 °F 89% 30.07 in 1.2 mi NNW 6.9 mph - 0.00 in Snow Light Snow
2:08 AM 19.4 °F 8.6 °F 17.6 °F 93% 30.03 in 0.8 mi NNW 9.2 mph 17.3 mph 0.00 in Snow Light Snow
2:15 AM 19.4 °F 8.6 °F 17.6 °F 93% 30.03 in 1.0 mi North 9.2 mph - 0.00 in Snow Light Snow
2:52 AM 19.0 °F 8.2 °F 16.0 °F 88% 30.09 in 1.0 mi NNW 9.2 mph - 0.00 in Snow Light Snow
3:12 AM 17.6 °F 7.3 °F 15.8 °F 93% 30.03 in 1.0 mi NNW 8.1 mph 16.1 mph 0.00 in Snow Light Snow
3:52 AM 17.1 °F 7.6 °F 14.0 °F 88% 30.10 in 1.5 mi NNW 6.9 mph - 0.00 in Snow Light Snow
4:26 AM 17.6 °F 6.4 °F 12.2 °F 79% 30.03 in 0.8 mi North 9.2 mph 17.3 mph 0.00 in Snow Light Snow
4:34 AM 17.6 °F 8.2 °F 12.2 °F 79% 30.03 in 1.0 mi North 6.9 mph - 0.00 in Snow Light Snow
4:52 AM 16.0 °F 5.3 °F 12.9 °F 88% 30.09 in 1.5 mi NNW 8.1 mph - 0.00 in Snow Light Snow
5:14 AM 15.8 °F 3.4 °F 12.2 °F 86% 30.04 in 3.0 mi NNW 10.4 mph 16.1 mph 0.00 in Snow Light Snow
5:31 AM 15.8 °F 2.7 °F 12.2 °F 86% 30.04 in 1.8 mi NNW 11.5 mph 16.1 mph 0.00 in Snow Light Snow
5:47 AM 15.8 °F 5.1 °F 10.4 °F 79% 30.04 in 3.0 mi North 8.1 mph - 0.00 in Snow Light Snow
5:52 AM 16.0 °F 3.6 °F 9.0 °F 74% 30.10 in 4.0 mi NNW 10.4 mph 17.3 mph 0.00 in Snow Light Snow
6:07 AM 15.8 °F 5.1 °F 8.6 °F 73% 30.04 in 10.0 mi NNW 8.1 mph 18.4 mph 0.00 in   Overcast
6:52 AM 15.1 °F 1.8 °F 8.1 °F 74% 30.10 in 10.0 mi NNW 11.5 mph 20.7 mph 0.00 in   Overcast
7:52 AM 14.0 °F 0.5 °F 7.0 °F 74% 30.10 in 10.0 mi NNW 11.5 mph 19.6 mph N/A   Overcast
8:52 AM 14.0 °F -0.8 °F 7.0 °F 74% 30.11 in 7.0 mi NNW 13.8 mph 21.9 mph N/A   Overcast
9:12 AM 14.0 °F -0.8 °F 6.8 °F 73% 30.05 in 2.5 mi NNW 13.8 mph 24.2 mph 0.00 in Snow Light Snow
9:26 AM 12.2 °F -3.1 °F 6.8 °F 79% 30.06 in 1.2 mi NNW 13.8 mph 23.0 mph 0.00 in Snow Light Snow
9:52 AM 12.9 °F -3.9 °F 6.1 °F 74% 30.10 in 1.5 mi NNW 17.3 mph 24.2 mph 0.00 in Snow Light Snow
10:32 AM 12.2 °F -3.7 °F 5.0 °F 73% 30.04 in 3.0 mi NNW 15.0 mph 20.7 mph 0.00 in Snow Light Snow
10:44 AM 12.2 °F -2.5 °F 5.0 °F 73% 30.04 in 8.0 mi NNW 12.7 mph 26.5 mph 0.00 in   Overcast
10:52 AM 12.9 °F -3.4 °F 5.0 °F 71% 30.09 in 8.0 mi NNW 16.1 mph 26.5 mph 0.00 in   Overcast
11:12 AM 12.2 °F -4.3 °F 6.8 °F 79% 30.01 in 1.5 mi North 16.1 mph 24.2 mph 0.00 in Snow Light Snow
11:52 AM 12.9 °F -2.8 °F 6.1 °F 74% 30.06 in 1.2 mi NNW 15.0 mph 25.3 mph 0.00 in Snow Light Snow
12:00 PM 12.2 °F -3.1 °F 6.8 °F 79% 29.99 in 1.2 mi NNW 13.8 mph 24.2 mph 0.00 in Snow Light Snow
12:10 PM 12.2 °F -2.5 °F 6.8 °F 79% 30.00 in 3.0 mi NNW 12.7 mph 23.0 mph 0.00 in Snow Light Snow
12:31 PM 12.2 °F -3.7 °F 3.2 °F 67% 29.96 in 9.0 mi NNW 15.0 mph 27.6 mph 0.00 in   Overcast
12:52 PM 12.9 °F -3.4 °F 3.9 °F 67% 30.02 in 6.0 mi NNW 16.1 mph 24.2 mph 0.00 in   Haze
1:09 PM 12.2 °F -5.3 °F 3.2 °F 67% 29.95 in 2.5 mi NNW 18.4 mph 28.8 mph 0.00 in Snow Light Snow
1:19 PM 12.2 °F -2.5 °F 3.2 °F 67% 29.96 in 1.5 mi NW 12.7 mph 33.4 mph 0.00 in Snow Light Snow
1:45 PM 12.2 °F -2.5 °F 1.4 °F 62% 29.96 in 3.0 mi NNW 12.7 mph 25.3 mph 0.00 in Snow Light Snow
1:52 PM 12.0 °F -4.0 °F 1.9 °F 64% 30.04 in 7.0 mi NNW 15.0 mph 21.9 mph 0.00 in   Overcast
2:24 PM 10.4 °F -4.8 °F 3.2 °F 73% 29.95 in 1.8 mi NW 12.7 mph 21.9 mph 0.00 in Snow Light Snow
2:35 PM 10.4 °F -6.6 °F 5.0 °F 79% 29.95 in 0.5 mi NNW 16.1 mph 23.0 mph 0.00 in Snow Snow
2:52 PM 9.0 °F -6.6 °F 5.0 °F 84% 30.03 in 0.8 mi NW 12.7 mph 19.6 mph 0.00 in Snow Light Snow
3:17 PM 8.6 °F -7.0 °F 3.2 °F 79% 29.96 in 1.0 mi NW 12.7 mph 23.0 mph 0.00 in Snow Light Snow
3:39 PM 8.6 °F -7.7 °F 1.4 °F 73% 29.95 in 2.0 mi NNW 13.8 mph 24.2 mph 0.00 in Snow Light Snow
3:52 PM 9.0 °F -7.3 °F 1.0 °F 70% 30.02 in 2.5 mi NW 13.8 mph 21.9 mph 0.00 in Snow Light Snow
4:11 PM 8.6 °F -7.7 °F -0.4 °F 67% 29.96 in 1.8 mi NW 13.8 mph 28.8 mph 0.00 in Snow Light Snow
4:21 PM 8.6 °F -8.9 °F 1.4 °F 73% 29.96 in 1.0 mi NW 16.1 mph 25.3 mph 0.00 in Snow Light Snow
4:52 PM 7.0 °F -9.8 °F 1.0 °F 77% 30.03 in 1.2 mi NW 13.8 mph 27.6 mph 0.00 in Snow Light Snow
5:09 PM 6.8 °F -9.3 °F -0.4 °F 72% 29.97 in 2.5 mi NW 12.7 mph 23.0 mph 0.00 in Snow Light Snow
5:22 PM 6.8 °F -9.3 °F -0.4 °F 72% 29.98 in 3.0 mi NW 12.7 mph 21.9 mph 0.00 in Snow Light Snow
5:37 PM 6.8 °F -10.0 °F -2.2 °F 67% 29.98 in 2.5 mi NW 13.8 mph 25.3 mph 0.00 in Snow Light Snow
5:52 PM 6.1 °F -11.6 °F -5.1 °F 60% 30.06 in 3.0 mi NW 15.0 mph 24.2 mph 0.00 in Snow Light Snow
6:12 PM 5.0 °F -10.8 °F -7.6 °F 56% 29.99 in 5.0 mi NW 11.5 mph 28.8 mph 0.00 in Rain Light Freezing Rain
6:52 PM 3.9 °F -13.7 °F -7.1 °F 60% 30.07 in 5.0 mi NW 13.8 mph 29.9 mph 0.00 in Snow Light Snow
7:12 PM 3.2 °F -15.3 °F -7.6 °F 61% 29.99 in 4.0 mi NW 15.0 mph 25.3 mph 0.00 in Snow Light Snow
7:27 PM 3.2 °F -14.6 °F -9.4 °F 56% 29.99 in 9.0 mi NW 13.8 mph 23.0 mph 0.00 in Rain Light Freezing Rain
7:52 PM 1.9 °F -13.8 °F -9.0 °F 60% 30.08 in 10.0 mi WNW 10.4 mph 25.3 mph 0.00 in   Overcast
8:52 PM -0.0 °F -18.7 °F -11.9 °F 57% 30.08 in 7.0 mi WNW 13.8 mph 27.6 mph N/A   Overcast
9:52 PM -2.0 °F -23.9 °F -13.0 °F 60% 30.08 in 8.0 mi WNW 18.4 mph 26.5 mph N/A   Overcast
10:52 PM -2.9 °F -26.1 °F -14.1 °F 59% 30.07 in 7.0 mi WNW 20.7 mph 29.9 mph N/A   Overcast
11:52 PM -4.0 °F -23.0 °F -14.1 °F 62% 30.08 in 9.0 mi WNW 12.7 mph 26.5 mph N/A   Overcast